International Virtual Aviation Organisation

Russian Federation and Kazakhstan MCD

 

Карточка аэропорта ULLI

Внимание!
Информация на этой странице в стадии наполнения.
Если вы не увидели какой-то информации, или заметили неточность - пожалуйста сообщите нам!
Спасибо!
Команда RU-STAFF
Название аэропортаПулково
Название аэропорта (англ.)Pulkovo
Превышение79 ft. (24.1 m.)
Координаты59°48.018', 30°15.75'
Высота перехода3500ft
Эшелон переходаQNH>=747mm:FL50; QNH<747=>720:FL60; QNH<720:FL70
Коды ответчика0701-0777, 5701-5727
Зона ОрВДСанкт-Петербург РПИ (ULLL)
Данные METARULLI 091330Z 32006MPS 9999 FEW040TCU 25/14 Q1017 R28R/090060 NOSIG
Проноз погоды (TAF)ULLI 091057Z 0912/1012 30005G10MPS 9999 SCT030 TEMPO 0912/0924 32007G13MPS -TSRA SCT016 BKN025CB TEMPO 1000/1006 3100 -SHRA BR BKN011 BKN025CB BECMG 1001/1003 34004G09MPS TEMPO 1006/1012 36006G12MPS
NOTAMshow/hide NOTAM
AWOS   TABLE

Информация о ВПП

ВПП Длина ВПП (м.) Покрытие Курс ВПП Частота ILS
10L3397Цементобетон96110.5
28R3397Цементобетон276111.3
10R3780Цементобетон96111.9
28L3780Цементобетон276108.9

Диспетчерские позиции

Позывной Наименование органа УВД Частота
ULLI_GNDПулково-Руление121.7
ULLI_TWRПулково-Вышка118.1
ULLI_APPПетербург-Подход119.3
ULLI_R_APPПулково-Круг120.3
ULLI_DELПулково-Деливери121.9
ULLIFM1Машина сопровождения121.7



Спутниковое изображение